Rockport, TX

11:35 AM CST on November 21, 2017 (GMT -0600)
Aransas County

Weather History for KRKP - September, 2013

Change the Weather History Date:

Friday, September 6, 2013

  Actual Average Record
Temperature  
Mean Temperature 84 °F -  
Max Temperature 91 °F 89 °F 93 °F (1971)
Min Temperature 79 °F 74 °F 55 °F (1974)
Cooling Degree Days 20    
Growing Degree Days 34 (Base 50)    
Moisture  
Dew Point 75 °F    
Average Humidity 71    
Maximum Humidity 90    
Minimum Humidity 59    
Precipitation  
Precipitation 0.00 in - - ()
Sea Level Pressure  
Sea Level Pressure 30.00 in    
Wind  
Wind Speed 8 mph (East)    
Max Wind Speed 15 mph    
Max Gust Speed -    
Visibility 10 miles    
Events      
Averages and records for this station are not official NWS values.
T = Trace of Precipitation, MM = Missing Value Source: NWS Daily Summary

Daily Weather History Graph

Daily Weather History Graph

Search for Another Location

Airport or City:

Trip Planner

Search our weather history database for the weather conditions in past years. The results will help you decide how hot, cold, wet, or windy it might be!

Date:

Astronomy

Sep. 06, 2013 Rise Set
Actual Time 7:09 AM CDT 7:43 PM CDT
Civil Twilight 6:45 AM CDT 8:06 PM CDT
Nautical Twilight 6:17 AM CDT 8:34 PM CDT
Astronomical Twilight 5:49 AM CDT 9:02 PM CDT
Moon 8:12 AM CDT (9/6) 8:21 PM CDT (9/6)
Length of Visible Light 13h 21m
Length of Day
12h 33m
New Moon, 2% of the Moon is Illuminated
Sep 6
New Moon
Sep 12
First Quarter
Sep 19
Full
Sep 26
Last Quarter
Oct 4
New

Hourly Weather History & Observations

Time (CDT) Temp. Heat Index Dew Point Humidity Pressure Visibility Wind Dir Wind Speed Gust Speed Precip Events Conditions
12:35 AM 84.2 °F 92.3 °F 75.2 °F 74% 30.02 in 10.0 mi ESE 5.8 mph - N/A   Mostly Cloudy
12:46 AM 84.2 °F 92.3 °F 75.2 °F 74% 30.02 in 10.0 mi ESE 8.1 mph - N/A   Scattered Clouds
12:53 AM 84.0 °F 91.2 °F 73.9 °F 72% 30.03 in 10.0 mi ESE 6.9 mph - N/A   Partly Cloudy
1:53 AM 82.9 °F 89.4 °F 73.9 °F 74% 30.03 in 10.0 mi ESE 4.6 mph - N/A   Clear
2:53 AM 82.9 °F 90.2 °F 75.0 °F 77% 30.02 in 10.0 mi East 8.1 mph - N/A   Partly Cloudy
3:53 AM 82.9 °F 89.4 °F 73.9 °F 74% 30.00 in 10.0 mi SE 8.1 mph - N/A   Clear
4:53 AM 82.9 °F 89.4 °F 73.9 °F 74% 29.99 in 10.0 mi SE 6.9 mph - N/A   Partly Cloudy
5:53 AM 82.0 °F 87.9 °F 73.9 °F 76% 30.01 in 10.0 mi ESE 4.6 mph - N/A   Partly Cloudy
6:53 AM 79.0 °F - 75.9 °F 90% 30.01 in 10.0 mi NNE 5.8 mph - N/A   Partly Cloudy
7:53 AM 80.1 °F 85.4 °F 75.9 °F 87% 30.02 in 10.0 mi NNE 4.6 mph - N/A   Partly Cloudy
8:53 AM 84.0 °F 92.6 °F 75.9 °F 76% 30.04 in 10.0 mi NE 9.2 mph - N/A   Partly Cloudy
9:53 AM 87.1 °F 97.3 °F 75.9 °F 69% 30.06 in 10.0 mi ENE 6.9 mph - N/A   Scattered Clouds
10:07 AM 87.8 °F 97.6 °F 75.2 °F 66% 30.05 in 10.0 mi North 3.5 mph - N/A   Mostly Cloudy
10:40 AM 89.6 °F 99.8 °F 75.2 °F 62% 30.05 in 10.0 mi NE 10.4 mph - N/A   Mostly Cloudy
10:53 AM 89.1 °F 100.2 °F 75.9 °F 65% 30.06 in 10.0 mi NE 8.1 mph - N/A   Scattered Clouds
11:53 AM 89.1 °F 99.1 °F 75.0 °F 63% 30.05 in 10.0 mi ENE 12.7 mph - N/A   Clear
12:53 PM 90.0 °F 99.0 °F 73.9 °F 59% 30.04 in 10.0 mi ENE 9.2 mph - N/A   Clear
1:53 PM 90.0 °F 99.0 °F 73.9 °F 59% 30.02 in 10.0 mi ENE 12.7 mph - N/A   Clear
2:53 PM 88.0 °F 97.5 °F 75.0 °F 65% 29.99 in 10.0 mi SE 10.4 mph - N/A   Mostly Cloudy
3:53 PM 89.1 °F 99.1 °F 75.0 °F 63% 29.96 in 10.0 mi ESE 10.4 mph - N/A   Clear
4:53 PM 88.0 °F 97.5 °F 75.0 °F 65% 29.95 in 10.0 mi ESE 10.4 mph - N/A   Clear
5:53 PM 87.1 °F 96.3 °F 75.0 °F 67% 29.95 in 10.0 mi ESE 11.5 mph - N/A   Clear
6:53 PM 86.0 °F 95.1 °F 75.0 °F 70% 29.95 in 10.0 mi SE 15.0 mph - N/A   Partly Cloudy
7:53 PM 84.0 °F 91.2 °F 73.9 °F 72% 29.96 in 10.0 mi ESE 10.4 mph - N/A   Partly Cloudy
8:53 PM 84.0 °F 91.9 °F 75.0 °F 74% 29.96 in 10.0 mi ESE 8.1 mph - N/A   Scattered Clouds
9:53 PM 84.0 °F 91.9 °F 75.0 °F 74% 29.97 in 10.0 mi East 8.1 mph - N/A   Clear
10:53 PM 82.9 °F 90.2 °F 75.0 °F 77% 29.96 in 10.0 mi ESE 9.2 mph - N/A   Clear
11:53 PM 82.9 °F 89.4 °F 73.9 °F 74% 29.96 in 10.0 mi ESE 9.2 mph - N/A   Clear